Location: Passau
(48.5830°N, 13.4830°E)
Time: 21:09:08
(UTC+02:00)

Vanguard 3 - Pass Details

Date: 21 May 2024
Orbit: 509 x 3231 km, 33.3° (Epoch: 16 June)

Event Time Altitude Azimuth Distance (km) Brightness Sun altitude
Rises 02:03:47 0° 272° (W) 6,221 11.5 -19.8°
Reaches altitude 10° 02:08:30 10° 261° (W) 5,543 11.1 -19.6°
Maximum altitude 02:21:41 27° 213° (SSW) 4,793 10.4 -18.9°
Drops below altitude 10° 02:36:07 10° 165° (SSE) 6,036 11.1 -18.1°
Sets 02:41:41 0° 155° (SSE) 6,848 11.5 -17.7°
